Regional Weather Roundup
Issued by NWS State College, PA

Home | Current Version | Previous Version | Text Only | Print | Product List | Glossary On
Versions: 1 2 3 4 5 6 7 8 9 10 11 12 13 14 15 16 17 18 19 20 21 22 23 24 25 26 27 28 29 30 31 32 33 34 35 36 37 38 39 40 41 42 43 44 45 46 47 48 49 50
000
ASUS41 KCTP 310810
RWRCTP

REGIONAL WEATHER ROUNDUP
NATIONAL WEATHER SERVICE STATE COLLEGE PA
400 AM EDT THU JUL 31 2014

Note: "fair" indicates few or no clouds below 12,000 feet with no
significant weather and/or obstructions to visibility.

* = STATION THAT DOES NOT REPORT PRECIPITATION /E.G. RAIN...SNOW...ETC/
    THUNDER OR FOG.

PAZ002>004-007>009-013>016-020>023-029>032-310900-
WESTERN PENNSYLVANIA

CITY           SKY/WX    TMP DP  RH WIND       PRES   REMARKS
ERIE           PTCLDY    61  56  83 S7        29.98S
MEADVILLE      PTCLDY    58  56  93 S5        30.01S
FRANKLIN*      MOCLDY    55  54  94 S7        30.04S
NEW CASTLE     FAIR      59  59 100 CALM      30.04S
BEAVER COUNTY  NOT AVBL
BUTLER*        CLOUDY    59  55  88 CALM      30.07S
PITTSBURGH INT CLEAR     58  56  93 S5        30.04F FOG
PITTSBURGH     CLEAR     57  55  93 S7        30.05F FOG
INDIANA*       CLOUDY    59  57  94 SW7       30.09F
LATROBE        PTCLDY    57  57 100 S6        30.07F
WASHINGTON CO* CLEAR     54  54 100 S5        30.06F
$$

PAZ004>006-010>012-017>019-024>028-033>037-041-042-045-046-049>053-310900-
CENTRAL PENNSYLVANIA

CITY           SKY/WX    TMP DP  RH WIND       PRES   REMARKS
BRADFORD       CLOUDY    56  54  93 SW6       30.04F
DUBOIS         MOCLDY    58  55  90 SW7       30.05S
CLEARFIELD     FOG       56  56 100 CALM      30.06S VSB 1/4
JOHNSTOWN      CLEAR     56  54  93 SW8       30.08F
ALTOONA        CLEAR     56  55  97 CALM      30.07F
STATE COLLEGE  PTCLDY    54  54  99 CALM      30.06S FOG
WILLIAMSPORT   CLOUDY    60  57  89 CALM      30.05R
SELINSGROVE    CLOUDY    60  58  92 CALM      30.05F FOG
FT INDIANTOWN  CLOUDY    61  61 100 CALM      30.06S
CAPITAL CITY   CLOUDY    62  61  96 CALM      30.05F
HARRISBURG     MOCLDY    65  62  90 CALM      30.04F
YORK           PTCLDY    62  59  90 W3        30.05F
$$

PAZ038>040-043-044-047-048-054-055-060>062-067>071-310900-
EASTERN PENNSYLVANIA

CITY           SKY/WX    TMP DP  RH WIND       PRES   REMARKS
SCRANTON       LGT RAIN  60  56  86 E3        30.05F
MOUNT POCONO   LGT RAIN  59  53  80 W3        30.08F
ALLENTOWN      CLOUDY    63  57  81 CALM      30.06S
QUAKERTOWN*    PTSUNNY   57  55  94 CALM      30.08S
READING        CLOUDY    65  58  78 CALM      30.04F
LANCASTER      CLOUDY    62  59  90 CALM      30.06S
COATESVILLE    MOSUNNY   61  57  88 CALM      30.08S
POTTSTOWN      PTCLDY    57  56  96 CALM      30.08S
BLUE BELL      CLEAR     57  55  94 CALM      30.06S
DOYLESTOWN     CLEAR     58  56  93 CALM      30.06S
WILLOW GROVE   NOT AVBL
NORTH PHILA    CLEAR     65  55  70 S3        30.08S
PHILADELPHIA   CLEAR     66  56  70 SW5       30.07S
$$



USA.gov is the U.S. government's official web portal to all federal, state and local government web resources and services.